www.pogodaiklimat.ru

Погода и климат >> Архив погоды >> Гана >> Wa


ПОГОДА в Wa

  • Прогноз погоды в Wa
  • Монитор погоды в Wa
  • Климат города

АРХИВ ПОГОДЫ в Wa

Время (UTC), дата Ветер
(напр.,м/с)
 
Видим.   Явления Облачность Т
(С)
Тd
(С)
f
(%)
Тe
(С)
Тes
(С)
Комфортность P
(гПа)
Po
(гПа)
Тmin
(С)
Tmax
(С)
R
(мм)
R24
(мм)
S
(см)
06 19.05 ЮЗ 2 12 км 9/6 360 м
[Sc Ac trans]
+25.5 +23.8 90 +35 +35 очень
душно
1012.9 1013.0 +25.0 6
09 19.05 ЮЗ 1 16 км 6/5 480 м
[Cu med, cong Ac trans Ci sp]
+29.0 +23.0 70 +39 +44 очень
душно
1013.8 1014.0
12 19.05 ЮЗ 2 14 км 9/9 420 м
[Cu Sc]
+31.5 +22.8 60 +41 +44 опасность
перегрева
1012.7 1013.0
15 19.05 ЮЗ 2 12 км 8/8 480 м
[Cu med, cong Ci sp]
+34.0 +21.4 48 +42 +44 опасность
перегрева
1009.8 1010.0
21 19.05 СВ 2 12 км 4/0
[Ci sp]
+28.8 +23.1 71 +39 +39 очень
душно
1012.4 1012.0
00 20.05 СВ 2 12 км 5/0
[Ci sp]
+27.0 +22.4 76 +35 +35 очень
душно
1013.6 1014.0
06 20.05 СВ 2 12 км 4/0
[Ac trans Ci sp]
+25.5 +23.1 87 +34 +34 очень
душно
1013.1 1013.0 +25.0
12 20.05 СВ 3 12 км 6/5 400 м
[Cu Sc Ci sp]
+33.0 +22.7 55 +43 +51 опасность
перегрева
1012.3 1012.0
15 20.05 ЮЗ 2 12 км 5/4 500 м
[Cu med, cong Ci sp]
+36.0 +22.2 45 +45 +52 опасность
перегрева
1009.3 1009.0
18 20.05 ЮЗ 3 12 км гроза, ливневой дождь 9/8 400 м
[Cb cap Ac trans]
+30.5 +22.3 62 +40 +40 очень
душно
1010.6 1011.0 +36.5 0.0
21 20.05 СВ 3 8000 м гроза, ливневой дождь 9/8 360 м
[Cb cap Ac As]
+22.0 +21.0 94 +28 +28 душно 1014.8 1015.0
00 21.05 ЮЗ 2 7000 м слабый ливневой дождь, в посл. час гроза 9/9 360 м
[Sc]
+23.5 +22.8 96 +31 +31 очень
душно
1015.8 1016.0 49
06 21.05 ЮЗ 1 13 км {дождь} 6/0
[Ac trans Ci sp]
+23.5 +22.5 94 +31 +31 очень
душно
1012.6 1013.0 +21.5 49
09 21.05 З 1 25 км 4/0
[Ci sp]
+27.5 +22.9 76 +37 +48 очень
душно
1014.1 1014.0
12 21.05 ЮВ 3 15 км 8/0
[Cs]
+32.5 +22.7 56 +42 +57 опасность
перегрева
1012.2 1012.0
15 21.05 ЮЗ 2 15 км 4/0 480 м
[Ci sp]
+34.5 +23.7 54 +46 +58 опасность
перегрева
1009.4 1009.0
21 21.05 ЮЗ 2 12 км ясно +30.5 +25.3 74 +44 +44 опасность
перегрева
1011.5 1012.0
03 22.05 ЮЗ 2 12 км ясно +28.0 +24.2 80 +39 +39 очень
душно
1010.0 1010.0
09 22.05 ЮЗ 1 14 км ясно +29.5 +23.5 70 +40 +52 опасность
солнечного
удара
1012.1 1012.0
12 22.05 ЮЗ 2 14 км 6/6 420 м
[Cu Sc]
+32.5 +23.8 60 +44 +53 опасность
перегрева
1011.4 1011.0
15 22.05 ЮЗ 1 12 км 6/6 480 м
[Cu med, cong]
+34.5 +23.7 54 +46 +52 опасность
перегрева
1007.8 1008.0
18 22.05 ЮЗ 3 13 км 4/3 450 м
[Cu Sc Ci sp]
+33.0 +23.5 58 +44 +44 опасность
перегрева
1007.6 1008.0 +34.5
00 23.05 ЮЗ 2 12 км ясно +29.5 +25.0 77 +43 +43 опасность
перегрева
1010.1 1010.0
06 23.05 З 32 300 м 4/0 200 м
[Ci sp]
+27.5 +24.4 83 +39 +39 очень
душно
1010.4 1010.0 +27.0
09 23.05 ЮЗ 2 12 км ясно +31.0 +23.6 65 +42 +53 опасность
перегрева
1011.4 1011.0
12 23.05 ЮЗ 2 12 км 4/4 480 м
[]
+34.5 +23.7 54 +46 +59 опасность
перегрева
1010.1 1010.0
15 23.05 ЮЗ 2 14 км 3/3 480 м
[Cu med, cong]
+36.2 +23.7 49 +47 +56 опасность
перегрева
1008.9 1009.0
18 23.05 ЮЗ 3 12 км 3/3 480 м
[Cb cap]
+30.0 +23.9 70 +41 +42 опасность
перегрева
1007.2 1007.0 +36.5
21 23.05 ЮЗ 2 12 км зарница 4/1 420 м
[Cb cap Ci sp]
+31.4 +24.2 66 +44 +44 опасность
перегрева
1010.1 1010.0
03 24.05 СЗ 1 10 км {гроза, дождь} 9/5 400 м
[Sc Ac trans]
+24.5 +21.3 82 +31 +31 очень
душно
1010.2 1010.0
09 24.05 СВ 2 12 км 9/9 360 м
[Sc]
+26.5 +21.9 76 +34 +35 очень
душно
1015.2 1015.0
12 24.05 ЮВ 3 12 км 9/9 360 м
[]
+27.5 +19.8 63 +33 +35 очень
душно
1014.7 1015.0
15 24.05 ЮВ 3 12 км 9/0
[Ac trans]
+28.5 +20.9 63 +36 +41 очень
душно
1010.4 1010.0
18 24.05 Ю 2 12 км 9/0
[Cs]
+27.5 +21.5 70 +35 +35 очень
душно
1010.6 1011.0 +28.5
21 24.05 ЮЗ 2 12 км 3/0
[Ci sp]
+25.5 +22.3 82 +33 +33 очень
душно
1013.4 1013.0
00 25.05 ЮВ 3 12 км ясно +24.5 +22.8 90 +32 +32 очень
душно
1013.2 1013.0
03 25.05 штиль 0 16 км ясно +24.0 +21.6 86 +31 +31 очень
душно
1011.6 1012.0
06 25.05 ЮЗ 2 12 км 5/3 400 м
[Sc Ac trans]
+24.0 +20.8 82 +30 +30 очень
душно
1012.9 1013.0 +24.0
12 25.05 ЮЗ 3 12 км 1/1
[Cu med, cong]
+31.2 +22.8 61 +41 +58 опасность
перегрева
1013.1 1013.0
15 25.05 ЮЗ 2 14 км ясно +33.5 +22.5 53 +43 +55 опасность
перегрева
1010.2 1010.0
18 25.05 ЮЗ 2 13 км 3/3 540 м
[Cb cap]
+32.5 +23.0 57 +43 +43 опасность
перегрева
1009.9 1010.0 +34.0
21 25.05 ЮВ 4 12 км зарница 9/8 400 м
[Cb cap Ci sp]
+28.0 +20.3 63 +34 +34 очень
душно
1013.6 1014.0
00 26.05 Ю 3 12 км зарница {гроза, дождь} 9/9 400 м
[Cb cap]
+25.0 +22.4 86 +33 +33 очень
душно
1015.0 1015.0 3
03 26.05 ЮЗ 2 12 км 9/9 360 м
[Sc]
+23.5 +21.0 86 +30 +30 очень
душно
1013.2 1013.0

 

Местоположение метеостанции Wa (Гана): широта 10.05 долгота -2.50 высота над уровнем моря 323 м.

В архиве по умолчанию представлена погода в Wa за последнюю неделю. Архивные данные за месяц целиком и за предыдущие месяцы, начиная с января 2011 года, Вы можете получить, выбрав интересующий диапазон дат из раскрывающегося списка и нажав кнопку "Ввод!".

Внимание! Время в таблицах - всемирное. Для получения местного времени необходимо прибавить поправку, которая в Wa равна 1 ч.

Смотрите также архив погоды в соседних городах и на ближайших метеорологических станциях:

Погода в Gaoua (Буркина-Фасо) (81 км)
Погода в Bole (Гана) (113 км)
Погода в Navrongo (Гана) (180 км)
Погода в Tamale (Гана) (191 км)
Погода в Po (Буркина-Фасо) (192 км)
Погода в Boromo (Буркина-Фасо) (195 км)
Погода в Bondoukou (Кот-д'Ивуар) (225 км)
Погода в Bobo-Dioulasso (Буркина-Фасо) (235 км)
Погода в Wenchi (Гана) (260 км)
Погода в Ouagadougou (Буркина-Фасо) (277 км)

Пояснения к столбцам:

Ветер - указаны скорость ветра в м/с - средняя за 10 мин, порывы в срок и между сроками (в фигурных скобках) и направление, откуда дует ветер: С - северный, СВ - северо-восточный, В - восточный, ЮВ - юго-восточный, Ю - южный, ЮЗ - юго-западный, З - западный, СЗ - северо-западный.
Видимость - горизонтальная дальность видимости в метрах или километрах. При видимости от 1 до 10 км при отсутствии осадков обычно наблюдается дымка, при ухудшении видимости до 1 км и менее - туман. В сухую погоду видимость может ухудшаться дымом, пылью или мглою.
Явления - указаны атмосферные явления, наблюдавшиеся в срок или в последний час перед сроком; фигурными скобками обозначены явления, наблюдавшиеся между сроками (за 1-3 часа до срока); квадратными скобками обозначены град или гололедные отложения с указанием их диаметра в мм.
Облачность - указаны через наклонную черту общая и нижняя облачность в баллах и высота нижней границы облаков в метрах; квадратными скобками обозначены формы облаков: Ci - перистые, Cs - перисто-слоистые, Cc - перисто-кучевые, Ac - высококучевые, As - высокослоистые, Sc - слоисто-кучевые, Ns - слоисто-дождевые, Cu - кучевые, Cb - кучево-дождевые. Подробнее классификацию облаков см. в Атласе облаков (PDF).
T - Температура воздуха - температура, измеренная на высоте 2 м над землей.
Td - Температура точки росы - температура, при понижении до которой содержащийся в воздухе водяной пар достигнет насыщения.
f - Относительная влажность воздуха - влажноcть воздуха, измеренная на высоте 2 м над землей.
Te - Эффективная температура - температура, которую ощущает одетый по сезону человек в тени. Характеристика душности погоды. При расчете учитывается влияние влажности воздуха и скорости ветра на теплоощущения человека.
Tes - Эффективная температура на солнце - температура, которую ощущает человек, с поправкой на солнечный нагрев. Характеристика знойности погоды. Зависит от высоты солнца над горизонтом, облачности и скорости ветра. Ночью, в пасмурную погоду, а также при ветре 12 м/с и более поправка равна нулю.
P - Атмосферное давление - приведенное к уровню моря атмосферное давление.
Po - Атмосферное давление - измеренное на уровне метеостанции атмосферное давление.
Tmin - Минимальная температура - минимум температуры воздуха на высоте 2 м над землей.
Tmax - Максимальная температура - максимум температуры воздуха на высоте 2 м над землей.
R - Количество осадков - Количество выпавших осадков за период времени, мм. При наведении курсора мыши на число - период времени, за который выпало указанное количество осадков.
R24 - Количество осадков - Количество выпавших осадков за 24 часа, мм.
S - Снежный покров - Высота снежного покрова, см. При наведении курсора мыши на число - состояние снежного покрова и степень покрытия местности в баллах.